Location: Hawks Ness
(60.2333°N, 1.1667°W)
Time: 20:55:40
(UTC+00:00)

NOSS 2-3 (E) - Pass Details

Date: 22 October 2019
Orbit: 595 x 1616 km, 63.4° (Epoch: 12 November)

Event Time Altitude Azimuth Distance (km) Brightness Sun altitude
Exits shadow 03:37:19 62° 298° (WNW) 933 4.2 -25.5°
Maximum altitude 03:38:04 71° 347° (NNW) 901 4.3 -25.4°
Drops below altitude 10° 03:44:35 10° 71° (ENE) 2,844 8.0 -24.6°
Sets 03:47:36 0° 74° (ENE) 3,970 9.1 -24.3°
